Williamstown, MA

5:06 AM EDT on July 26, 2016 (GMT -0400)
Harriman And West

Weather History for KAQW - January, 2013

Change the Weather History Date:

Sunday, January 6, 2013

  Actual Average Record
Temperature  
Mean Temperature 29 °F -  
Max Temperature 37 °F 31 °F 68 °F (2007)
Min Temperature 21 °F 17 °F 3 °F (1999)
Degree Days  
Heating Degree Days 36    
Moisture  
Dew Point 21 °F    
Average Humidity 69    
Maximum Humidity 81    
Minimum Humidity 54    
Precipitation  
Precipitation 0.01 in - - ()
Sea Level Pressure  
Sea Level Pressure 30.02 in    
Wind  
Wind Speed 4 mph (SSW)    
Max Wind Speed 13 mph    
Max Gust Speed -    
Visibility 8 miles    
Events Snow    
Averages and records for this station are not official NWS values.
T = Trace of Precipitation, MM = Missing Value Source: NWS Daily Summary

Daily Weather History Graph

Daily Weather History Graph

Search for Another Location

Airport or City:

Trip Planner

Search our weather history database for the weather conditions in past years. The results will help you decide how hot, cold, wet, or windy it might be!

Date:

Astronomy

Jan. 06, 2013 Rise Set
Actual Time 7:22 AM EST 4:34 PM EST
Civil Twilight 6:51 AM EST 5:06 PM EST
Nautical Twilight 6:15 AM EST 5:41 PM EST
Astronomical Twilight 5:41 AM EST 6:15 PM EST
Moon 1:31 AM EST (1/6) 12:02 PM EST (1/6)
Length of Visible Light 10h 15m
Length of Day
9h 11m
Waning Crescent, 33% of the Moon is Illuminated
Jan 6
Waning Crescent
Jan 11
New
Jan 18
First Quarter
Jan 26
Full
Feb 3
Last Quarter

Hourly Weather History & Observations

Time (EST) Temp. Windchill Dew Point Humidity Pressure Visibility Wind Dir Wind Speed Gust Speed Precip Events Conditions
12:52 AM 21.0 °F - 14.0 °F 74% 30.19 in 10.0 mi Calm Calm - N/A   Clear
1:52 AM 24.1 °F 19.7 °F 14.0 °F 65% 30.19 in 10.0 mi East 3.5 mph - N/A   Mostly Cloudy
2:52 AM 25.0 °F 20.7 °F 14.0 °F 63% 30.14 in 10.0 mi SSE 3.5 mph - N/A   Overcast
3:28 AM 24.8 °F 16.1 °F 15.8 °F 69% 30.10 in 4.0 mi East 8.1 mph - 0.00 in Snow Light Snow
3:52 AM 25.0 °F 18.1 °F 16.0 °F 69% 30.10 in 6.0 mi East 5.8 mph - 0.00 in Snow Light Snow
4:14 AM 26.6 °F 20.0 °F 17.6 °F 69% 30.07 in 4.0 mi East 5.8 mph - 0.00 in Snow Light Snow
4:25 AM 24.8 °F - 17.6 °F 74% 30.07 in 2.0 mi Calm Calm - 0.00 in Snow Light Snow
4:37 AM 24.8 °F 19.1 °F 19.4 °F 80% 30.07 in 1.8 mi ESE 4.6 mph - 0.00 in Snow Light Snow
4:52 AM 25.0 °F 17.1 °F 19.9 °F 81% 30.09 in 2.0 mi ESE 6.9 mph - 0.00 in Snow Light Snow
5:22 AM 24.8 °F 14.6 °F 19.4 °F 80% 30.05 in 2.5 mi ESE 10.4 mph - 0.01 in Snow Light Snow
5:29 AM 24.8 °F 15.3 °F 19.4 °F 80% 30.05 in 4.0 mi East 9.2 mph - 0.01 in Snow Light Snow
5:52 AM 25.0 °F 18.1 °F 19.9 °F 81% 30.06 in 8.0 mi Variable 5.8 mph - 0.01 in Snow Light Snow
6:43 AM 24.8 °F - 17.6 °F 74% 30.04 in 10.0 mi Calm Calm - 0.00 in   Scattered Clouds
6:52 AM 23.0 °F 18.4 °F 18.0 °F 81% 30.08 in 10.0 mi Variable 3.5 mph - 0.00 in   Partly Cloudy
7:52 AM 25.0 °F - 19.9 °F 81% 30.05 in 10.0 mi Calm Calm - N/A   Overcast
8:52 AM 28.0 °F - 19.9 °F 72% 30.04 in 10.0 mi Calm Calm - N/A   Mostly Cloudy
9:52 AM 30.0 °F - 19.9 °F 66% 30.03 in 10.0 mi Calm Calm - N/A   Overcast
10:52 AM 36.0 °F 31.1 °F 21.0 °F 55% 30.01 in 10.0 mi Variable 5.8 mph - N/A   Overcast
11:52 AM 35.1 °F 29.3 °F 21.0 °F 57% 29.99 in 10.0 mi West 6.9 mph - N/A   Overcast
12:42 PM 35.6 °F 29.9 °F 21.2 °F 56% 29.94 in 10.0 mi WSW 6.9 mph - N/A   Overcast
12:52 PM 35.1 °F 30.1 °F 21.9 °F 59% 29.96 in 10.0 mi West 5.8 mph - N/A   Overcast
1:35 PM 35.6 °F 29.2 °F 21.2 °F 56% 29.92 in 10.0 mi WSW 8.1 mph - N/A   Overcast
1:52 PM 36.0 °F 30.3 °F 21.9 °F 57% 29.95 in 10.0 mi West 6.9 mph - N/A   Overcast
2:52 PM 37.0 °F 31.6 °F 21.9 °F 54% 29.94 in 10.0 mi WSW 6.9 mph - N/A   Mostly Cloudy
3:52 PM 35.1 °F - 21.9 °F 59% 29.94 in 10.0 mi Calm Calm - N/A   Mostly Cloudy
4:52 PM 32.0 °F - 24.1 °F 73% 29.94 in 10.0 mi Calm Calm - N/A   Overcast
5:52 PM 30.9 °F - 24.1 °F 76% 29.95 in 10.0 mi Calm Calm - N/A   Overcast
6:52 PM 30.9 °F - 25.0 °F 79% 29.97 in 10.0 mi Calm Calm - N/A   Overcast
7:52 PM 30.9 °F - 25.0 °F 79% 29.97 in 9.0 mi Calm Calm - N/A   Overcast
8:52 PM 30.9 °F - 25.0 °F 79% 29.97 in 7.0 mi Calm Calm - N/A   Overcast
9:52 PM 34.0 °F 29.8 °F 25.0 °F 70% 29.96 in 9.0 mi WNW 4.6 mph - N/A   Overcast
10:52 PM 37.0 °F 29.8 °F 24.1 °F 59% 29.97 in 10.0 mi West 10.4 mph - N/A   Overcast
11:39 PM 35.6 °F 28.6 °F 24.8 °F 65% 29.96 in 10.0 mi West 9.2 mph - N/A   Overcast
11:52 PM 36.0 °F 27.5 °F 26.1 °F 67% 29.98 in 10.0 mi WSW 12.7 mph - N/A   Overcast